| time (UTC) | temp F | wind direction | speed MPH | gust MPH | rain 1hr in | rain 24hr in | rain mn in | humidity % | barometer mb |
| 20260904213021 | 76 | 339 | 0.0 | 7.0 | 0.00 | 0.00 | 0.00 | 66 | 1011.0 |
| 20260904211521 | 76 | 325 | 2.0 | 7.0 | 0.00 | 0.00 | 0.00 | 66 | 1011.0 |
| 20260904210020 | 76 | 311 | 0.0 | 0.0 | 0.00 | 0.00 | 0.00 | 69 | 1011.2 |
| 20260904204518 | 76 | 311 | 1.0 | 5.0 | 0.00 | 0.00 | 0.00 | 68 | 1011.5 |
| 20260904203017 | 76 | 311 | 0.0 | 0.0 | 0.00 | 0.00 | 0.00 | 68 | 1011.5 |
| 20260904201515 | 77 | 311 | 0.0 | 6.0 | 0.00 | 0.00 | 0.00 | 66 | 1011.7 |
| 20260904200024 | 76 | 301 | 0.0 | 3.0 | 0.00 | 0.00 | 0.00 | 72 | 1011.8 |
| 20260904194512 | 76 | 290 | 0.0 | 3.0 | 0.00 | 0.00 | 0.00 | 71 | 1011.9 |
| 20260904193011 | 76 | 289 | 0.0 | 0.0 | 0.00 | 0.00 | 0.00 | 73 | 1011.9 |
| 20260904191513 | 76 | 289 | 0.0 | 0.0 | 0.00 | 0.00 | 0.00 | 74 | 1012.3 |
| 20260904190006 | 75 | 289 | 0.0 | 1.0 | 0.00 | 0.00 | 0.00 | 75 | 1012.3 |
| 20260904184517 | 75 | 289 | 0.0 | 4.0 | 0.00 | 0.00 | 0.00 | 74 | 1012.3 |
| 20260904183005 | 75 | 303 | 1.0 | 6.0 | 0.00 | 0.00 | 0.00 | 74 | 1012.5 |
| 20260904181504 | 74 | 309 | 1.0 | 7.0 | 0.00 | 0.00 | 0.00 | 75 | 1012.8 |
| 20260904180004 | 73 | 295 | 1.0 | 7.0 | 0.00 | 0.00 | 0.00 | 76 | 1013.0 |
| 20260904174504 | 73 | 298 | 0.0 | 6.0 | 0.00 | 0.00 | 0.00 | 75 | 1013.1 |
| 20260904173004 | 73 | 311 | 1.0 | 5.0 | 0.00 | 0.00 | 0.00 | 75 | 1013.3 |
| 20260904171503 | 74 | 297 | 2.0 | 10.0 | 0.00 | 0.00 | 0.00 | 74 | 1013.2 |
| 20260904170002 | 73 | 303 | 4.0 | 9.0 | 0.00 | 0.00 | 0.00 | 73 | 1013.2 |
| 20260904164502 | 72 | 319 | 5.0 | 10.0 | 0.00 | 0.00 | 0.00 | 77 | 1013.3 |
| 20260904163002 | 73 | 302 | 6.0 | 11.0 | 0.00 | 0.00 | 0.00 | 76 | 1013.3 |
| 20260904161502 | 74 | 329 | 3.0 | 8.0 | 0.00 | 0.00 | 0.00 | 76 | 1013.4 |
| 20260904160002 | 75 | 301 | 1.0 | 7.0 | 0.00 | 0.00 | 0.00 | 73 | 1013.3 |
| 20260904154600 | 75 | 300 | 4.0 | 8.0 | 0.00 | 0.00 | 0.00 | 74 | 1013.3 |
| 20260904153105 | 75 | 319 | 3.0 | 8.0 | 0.00 | 0.00 | 0.00 | 75 | 1013.5 |
| 20260904151603 | 74 | 300 | 0.0 | 7.0 | 0.00 | 0.00 | 0.00 | 77 | 1013.3 |
| 20260904150058 | 73 | 344 | 0.0 | 6.0 | 0.00 | 0.00 | 0.00 | 78 | 1013.2 |
| 20260904144555 | 72 | 336 | 0.0 | 5.0 | 0.00 | 0.00 | 0.00 | 80 | 1013.0 |
| 20260904143055 | 72 | 336 | 0.0 | 1.0 | 0.00 | 0.00 | 0.00 | 81 | 1013.2 |
| 20260904141610 | 72 | 336 | 0.0 | 5.0 | 0.00 | 0.00 | 0.00 | 80 | 1013.3 |
| 20260904140051 | 72 | 337 | 1.0 | 5.0 | 0.00 | 0.00 | 0.00 | 80 | 1013.5 |
| 20260904134550 | 72 | 338 | 0.0 | 9.0 | 0.00 | 0.00 | 0.00 | 80 | 1013.5 |
| 20260904133047 | 72 | 348 | 0.0 | 9.0 | 0.00 | 0.00 | 0.00 | 82 | 1013.2 |
| 20260904131604 | 71 | 307 | 3.0 | 6.0 | 0.00 | 0.00 | 0.00 | 83 | 1013.2 |
| 20260904130045 | 71 | 300 | 3.0 | 5.0 | 0.00 | 0.00 | 0.00 | 83 | 1013.1 |
| 20260904124544 | 71 | 319 | 0.0 | 5.0 | 0.00 | 0.00 | 0.00 | 86 | 1013.3 |
| 20260904123053 | 69 | 319 | 1.0 | 5.0 | 0.00 | 0.00 | 0.00 | 90 | 1013.4 |
| 20260904121536 | 68 | 319 | 0.0 | 3.0 | 0.00 | 0.00 | 0.00 | 92 | 1013.4 |
| 20260904120035 | 68 | 319 | 0.0 | 0.0 | 0.00 | 0.00 | 0.00 | 93 | 1013.3 |
| 20260904114542 | 66 | 319 | 0.0 | 0.0 | 0.00 | 0.00 | 0.00 | 93 | 1013.4 |
| 20260904113033 | 65 | 319 | 0.0 | 0.0 | 0.00 | 0.00 | 0.00 | 92 | 1013.3 |
| 20260904111534 | 65 | 319 | 0.0 | 0.0 | 0.00 | 0.00 | 0.00 | 92 | 1013.3 |
| 20260904110035 | 65 | 319 | 0.0 | 0.0 | 0.00 | 0.01 | 0.00 | 92 | 1013.3 |
| 20260904104528 | 65 | 319 | 0.0 | 0.0 | 0.00 | 0.01 | 0.00 | 92 | 1013.0 |
| 20260904103025 | 65 | 319 | 0.0 | 0.0 | 0.00 | 0.01 | 0.00 | 91 | 1013.0 |
| 20260904101525 | 66 | 319 | 0.0 | 0.0 | 0.00 | 0.01 | 0.00 | 92 | 1013.0 |
| 20260904100023 | 66 | 319 | 0.0 | 0.0 | 0.00 | 0.01 | 0.00 | 91 | 1012.8 |
| 20260904094522 | 66 | 319 | 0.0 | 0.0 | 0.00 | 0.01 | 0.00 | 92 | 1012.8 |
| 20260904093021 | 66 | 319 | 0.0 | 0.0 | 0.00 | 0.01 | 0.00 | 92 | 1012.9 |
| 20260904091521 | 66 | 319 | 0.0 | 0.0 | 0.00 | 0.01 | 0.00 | 92 | 1012.8 |
| 20260904090023 | 66 | 319 | 0.0 | 0.0 | 0.00 | 0.03 | 0.01 | 92 | 1012.8 |
| 20260904084519 | 67 | 319 | 0.0 | 0.0 | 0.00 | 0.03 | 0.01 | 92 | 1012.7 |
| 20260904083020 | 66 | 319 | 0.0 | 0.0 | 0.00 | 0.03 | 0.01 | 92 | 1012.6 |
| 20260904081519 | 66 | 319 | 0.0 | 0.0 | 0.00 | 0.03 | 0.01 | 92 | 1012.4 |
| 20260904080020 | 66 | 319 | 0.0 | 2.0 | 0.00 | 0.05 | 0.01 | 92 | 1012.4 |
| 20260904074522 | 65 | 319 | 0.0 | 0.0 | 0.00 | 0.05 | 0.01 | 92 | 1012.4 |
| 20260904073022 | 65 | 319 | 0.0 | 0.0 | 0.00 | 0.05 | 0.01 | 92 | 1012.5 |
| 20260904071530 | 65 | 319 | 0.0 | 0.0 | 0.00 | 0.05 | 0.01 | 92 | 1012.4 |
| 20260904070019 | 66 | 319 | 0.0 | 0.0 | 0.00 | 0.11 | 0.01 | 92 | 1012.1 |
| 20260904064516 | 66 | 319 | 0.0 | 0.0 | 0.00 | 0.11 | 0.01 | 92 | 1011.8 |
| 20260904063022 | 67 | 319 | 0.0 | 0.0 | 0.00 | 0.11 | 0.01 | 92 | 1011.5 |
| 20260904061519 | 67 | 319 | 0.0 | 0.0 | 0.00 | 0.11 | 0.01 | 91 | 1011.7 |
| 20260904060017 | 67 | 319 | 0.0 | 0.0 | 0.00 | 0.12 | 0.01 | 91 | 1011.9 |
| 20260904054516 | 67 | 319 | 0.0 | 0.0 | 0.00 | 0.12 | 0.01 | 91 | 1011.9 |
| 20260904053016 | 67 | 319 | 0.0 | 0.0 | 0.00 | 0.12 | 0.01 | 90 | 1012.1 |
| 20260904051515 | 68 | 319 | 0.0 | 0.0 | 0.00 | 0.12 | 0.01 | 90 | 1012.2 |
| 20260904050015 | 68 | 319 | 0.0 | 0.0 | 0.00 | 0.27 | 0.01 | 89 | 1012.2 |
| 20260904044530 | 69 | 319 | 0.0 | 0.0 | 0.00 | 0.27 | 0.01 | 88 | 1012.2 |
| 20260904043014 | 69 | 319 | 0.0 | 1.0 | 0.00 | 0.27 | 0.01 | 88 | 1012.0 |
| 20260904041515 | 69 | 319 | 0.0 | 3.0 | 0.00 | 0.27 | 0.01 | 88 | 1012.1 |
| 20260904040014 | 70 | 323 | 0.0 | 0.0 | 0.00 | 0.28 | 0.01 | 88 | 1012.1 |
| 20260904034513 | 70 | 323 | 0.0 | 2.0 | 0.00 | 0.28 | 0.01 | 87 | 1012.1 |
| 20260904033013 | 70 | 323 | 0.0 | 3.0 | 0.00 | 0.28 | 0.01 | 87 | 1012.2 |
| 20260904031515 | 71 | 323 | 0.0 | 0.0 | 0.00 | 0.28 | 0.01 | 86 | 1012.6 |
| 20260904030016 | 71 | 323 | 0.0 | 2.0 | 0.00 | 0.28 | 0.01 | 87 | 1012.3 |
| 20260904024515 | 71 | 325 | 0.0 | 0.0 | 0.00 | 0.28 | 0.01 | 88 | 1012.4 |
| 20260904023012 | 71 | 325 | 0.0 | 0.0 | 0.00 | 0.28 | 0.01 | 89 | 1011.7 |
| 20260904021517 | 71 | 325 | 0.0 | 0.0 | 0.00 | 0.53 | 0.01 | 90 | 1011.9 |
| 20260904020012 | 71 | 325 | 0.0 | 0.0 | 0.00 | 0.53 | 0.01 | 89 | 1012.2 |
| 20260904014518 | 71 | 325 | 0.0 | 0.0 | 0.00 | 0.53 | 0.01 | 88 | 1012.2 |
| 20260904013011 | 71 | 325 | 0.0 | 0.0 | 0.00 | 0.53 | 0.01 | 88 | 1012.3 |
| 20260904011524 | 72 | 325 | 0.0 | 0.0 | 0.00 | 0.53 | 0.01 | 87 | 1012.4 |
| 20260904010013 | 73 | 325 | 0.0 | 0.0 | 0.00 | 0.53 | 0.01 | 84 | 1012.4 |
| 20260904004510 | 73 | 325 | 0.0 | 0.0 | 0.00 | 0.53 | 0.01 | 84 | 1012.3 |
| 20260904003009 | 73 | 325 | 0.0 | 0.0 | 0.00 | 0.53 | 0.01 | 86 | 1012.2 |
| 20260904001510 | 73 | 325 | 0.0 | 0.0 | 0.00 | 0.53 | 0.01 | 84 | 1012.5 |
| 20260904000009 | 73 | 325 | 0.0 | 0.0 | 0.00 | 0.53 | 0.01 | 85 | 1012.2 |
| 20260903234509 | 74 | 325 | 0.0 | 0.0 | 0.00 | 0.53 | 0.01 | 83 | 1012.1 |
| 20260903233009 | 75 | 325 | 0.0 | 0.0 | 0.00 | 0.53 | 0.01 | 79 | 1012.1 |
| 20260903231510 | 75 | 325 | 0.0 | 0.0 | 0.00 | 0.53 | 0.01 | 80 | 1012.3 |
| 20260903230010 | 76 | 325 | 0.0 | 0.0 | 0.00 | 0.53 | 0.01 | 80 | 1012.4 |
| 20260903224521 | 77 | 325 | 0.0 | 0.0 | 0.00 | 0.53 | 0.01 | 79 | 1012.5 |
| 20260903223007 | 77 | 325 | 0.0 | 0.0 | 0.00 | 0.53 | 0.01 | 79 | 1012.2 |
| 20260903221510 | 78 | 325 | 2.0 | 6.0 | 0.00 | 0.53 | 0.01 | 78 | 1011.7 |
| 20260903220012 | 80 | 323 | 2.0 | 10.0 | 0.00 | 0.53 | 0.01 | 77 | 1011.4 |
| 20260903214507 | 82 | 313 | 2.0 | 5.0 | 0.00 | 0.53 | 0.01 | 70 | 1011.2 |